Location: Bakhuizen
(52.8696°N, 5.4575°E)
Time: 07:19:10
(UTC+00:00)

Cosmos 1151 Rocket - Pass Details

Date: 11 May 2021
Orbit: 592 x 616 km, 82.5° (Epoch: 15 June)

Event Time Altitude Azimuth Distance (km) Brightness Sun altitude
Rises 19:57:12 0° 171° (S) 2,865 6.0 -5.0°
Reaches altitude 10° 19:59:28 10° 165° (SSE) 1,969 5.2 -5.2°
Maximum altitude 20:03:37 45° 94° (E) 849 3.5 -5.7°
Drops below altitude 10° 20:07:49 10° 22° (NNE) 1,992 5.9 -6.2°
Sets 20:10:07 0° 16° (NNE) 2,903 6.9 -6.5°
